When you browse on this site, cookies collect data to enhance your experience and personalize the content and advertising you see.
Visit our Privacy Policy to learn more. By continuing to use the site, you agree to this use of cookies and data.
EN

Hourly Weather La Estrella

Today, 9 August, Sunday

Time Temperature Precipitation Wind Pressure Humidity
00:00 +15°C° 0 mm 0 mps 613 mmHg 89%
01:00 +15°C° 0 mm 0 mps 613 mmHg 90%
02:00 +14°C° 0 mm 0 mps 612 mmHg 90%
03:00 +14°C° 0 mm 0 mps 612 mmHg 91%
04:00 +14°C° 0 mm 0 mps 612 mmHg 91%
05:00 +14°C° 0 mm 0 mps 612 mmHg 88%
06:00 +15°C° 0 mm 0 mps 612 mmHg 86%
07:00 +15°C° 0 mm 0 mps 613 mmHg 83%
08:00 +18°C° 0 mm 0 mps 614 mmHg 72%
09:00 +23°C° 0 mm 1 mps 615 mmHg 61%
10:00 +26°C° 0 mm 1 mps 616 mmHg 50%
11:00 +27°C° 0 mm 1 mps 616 mmHg 46%
12:00 +29°C° 0 mm 1 mps 616 mmHg 42%
13:00 +30°C° 0 mm 1 mps 616 mmHg 38%
14:00 +29°C° 0 mm 1 mps 615 mmHg 40%
15:00 +29°C° 0 mm 1 mps 614 mmHg 42%
16:00 +28°C° 0 mm 1 mps 614 mmHg 43%
17:00 +25°C° 0.1 mm 1 mps 613 mmHg 55%
18:00 +23°C° 0.1 mm 1 mps 612 mmHg 67%
19:00 +20°C° 0.1 mm 1 mps 612 mmHg 78%
20:00 +19°C° 0.2 mm 1 mps 612 mmHg 81%
21:00 +18°C° 0.2 mm 1 mps 613 mmHg 84%
22:00 +18°C° 0.2 mm 1 mps 613 mmHg 87%
23:00 +16°C° 0 mm 1 mps 613 mmHg 88%

Tomorrow, 10 August, Monday

Time Temperature Precipitation Wind Pressure Humidity
00:00 +16°C° 0 mm 1 mps 612 mmHg 89%
01:00 +15°C° 0 mm 0 mps 612 mmHg 90%
02:00 +15°C° 0 mm 0 mps 612 mmHg 90%
03:00 +14°C° 0 mm 0 mps 611 mmHg 91%
04:00 +14°C° 0 mm 0 mps 611 mmHg 92%
05:00 +15°C° 0 mm 0 mps 612 mmHg 90%
06:00 +15°C° 0 mm 0 mps 612 mmHg 89%
07:00 +15°C° 0 mm 0 mps 612 mmHg 87%
08:00 +18°C° 0 mm 0 mps 614 mmHg 76%
09:00 +21°C° 0 mm 0 mps 615 mmHg 65%
10:00 +26°C° 0 mm 1 mps 616 mmHg 54%
11:00 +27°C° 0.2 mm 1 mps 616 mmHg 51%
12:00 +28°C° 0.2 mm 1 mps 615 mmHg 49%
13:00 +29°C° 0.2 mm 1 mps 615 mmHg 46%
14:00 +28°C° 0.3 mm 1 mps 614 mmHg 49%
15:00 +27°C° 0.3 mm 1 mps 613 mmHg 51%
16:00 +27°C° 0.3 mm 1 mps 613 mmHg 54%
17:00 +24°C° 0.6 mm 1 mps 612 mmHg 66%
18:00 +22°C° 0.6 mm 1 mps 611 mmHg 78%
19:00 +19°C° 0.6 mm 1 mps 611 mmHg 89%
20:00 +18°C° 0.4 mm 1 mps 611 mmHg 91%
21:00 +18°C° 0.4 mm 1 mps 612 mmHg 92%
22:00 +16°C° 0.4 mm 1 mps 612 mmHg 94%
23:00 +15°C° 0.2 mm 0 mps 612 mmHg 94%

Day after tomorrow, 11 August, Tuesday

Time Temperature Precipitation Wind Pressure Humidity
00:00 +15°C° 0.2 mm 0 mps 612 mmHg 94%
01:00 +15°C° 0.2 mm 0 mps 611 mmHg 95%
02:00 +14°C° 0 mm 0 mps 611 mmHg 95%
03:00 +14°C° 0 mm 0 mps 611 mmHg 95%
04:00 +14°C° 0 mm 0 mps 610 mmHg 95%
05:00 +14°C° 0 mm 0 mps 611 mmHg 94%
06:00 +15°C° 0 mm 0 mps 611 mmHg 93%
07:00 +15°C° 0 mm 0 mps 611 mmHg 92%
08:00 +18°C° 0 mm 0 mps 613 mmHg 80%
09:00 +21°C° 0 mm 0 mps 614 mmHg 68%
10:00 +26°C° 0 mm 1 mps 615 mmHg 56%
11:00 +26°C° 0.6 mm 1 mps 615 mmHg 57%
12:00 +25°C° 0.6 mm 0 mps 614 mmHg 58%
13:00 +25°C° 0.6 mm 0 mps 614 mmHg 59%
14:00 +24°C° 1 mm 0 mps 613 mmHg 63%
15:00 +26°C° 1 mm 1 mps 612 mmHg 68%
16:00 +25°C° 1 mm 1 mps 612 mmHg 72%
17:00 +23°C° 1.4 mm 1 mps 611 mmHg 79%
18:00 +19°C° 1.4 mm 0 mps 611 mmHg 86%
19:00 +17°C° 1.4 mm 0 mps 611 mmHg 93%
20:00 +16°C° 0.6 mm 0 mps 611 mmHg 94%
21:00 +16°C° 0.6 mm 0 mps 611 mmHg 94%
22:00 +16°C° 0.6 mm 0 mps 612 mmHg 95%
23:00 +15°C° 1 mm 0 mps 612 mmHg 95%

12 August, Wednesday

Time Temperature Precipitation Wind Pressure Humidity
00:00 +15°C° 1 mm 0 mps 611 mmHg 96%
01:00 +15°C° 1 mm 0 mps 611 mmHg 96%
02:00 +15°C° 2.4 mm 0 mps 611 mmHg 96%
03:00 +15°C° 2.4 mm 0 mps 611 mmHg 97%
04:00 +15°C° 2.4 mm 0 mps 611 mmHg 97%
05:00 +15°C° 0.1 mm 0 mps 611 mmHg 96%
06:00 +15°C° 0.1 mm 0 mps 611 mmHg 96%
07:00 +16°C° 0.1 mm 0 mps 612 mmHg 95%
08:00 +18°C° 0.1 mm 0 mps 613 mmHg 85%
09:00 +20°C° 0.1 mm 0 mps 614 mmHg 74%
10:00 +25°C° 0.1 mm 1 mps 615 mmHg 63%
11:00 +23°C° 1.1 mm 0 mps 614 mmHg 64%
12:00 +24°C° 1.1 mm 0 mps 614 mmHg 65%
13:00 +25°C° 1.1 mm 0 mps 613 mmHg 66%
14:00 +24°C° 1.4 mm 0 mps 613 mmHg 69%
15:00 +23°C° 1.4 mm 0 mps 612 mmHg 73%
16:00 +22°C° 1.4 mm 0 mps 611 mmHg 76%
17:00 +21°C° 1.9 mm 0 mps 611 mmHg 82%
18:00 +19°C° 1.9 mm 0 mps 611 mmHg 88%
19:00 +17°C° 1.9 mm 0 mps 610 mmHg 93%
20:00 +16°C° 1.6 mm 0 mps 611 mmHg 94%
21:00 +16°C° 1.6 mm 0 mps 611 mmHg 95%
22:00 +16°C° 1.6 mm 0 mps 612 mmHg 95%
23:00 +16°C° 1.6 mm 0 mps 612 mmHg 96%

13 August, Thursday

Time Temperature Precipitation Wind Pressure Humidity
00:00 +16°C° 1.6 mm 0 mps 611 mmHg 96%
01:00 +16°C° 1.6 mm 0 mps 611 mmHg 97%
02:00 +16°C° 4.6 mm 0 mps 611 mmHg 97%
03:00 +16°C° 4.6 mm 0 mps 611 mmHg 98%
04:00 +15°C° 4.6 mm 0 mps 611 mmHg 98%
05:00 +16°C° 0.1 mm 0 mps 611 mmHg 97%
06:00 +16°C° 0.1 mm 0 mps 611 mmHg 97%
07:00 +16°C° 0.1 mm 0 mps 612 mmHg 96%
08:00 +16°C° 0.3 mm 0 mps 612 mmHg 95%
09:00 +17°C° 0.3 mm 0 mps 612 mmHg 93%
10:00 +17°C° 0.3 mm 0 mps 613 mmHg 92%
11:00 +18°C° 0.8 mm 0 mps 613 mmHg 89%
12:00 +19°C° 0.8 mm 0 mps 612 mmHg 86%
13:00 +22°C° 0.8 mm 1 mps 612 mmHg 82%
14:00 +20°C° 1.2 mm 0 mps 612 mmHg 85%
15:00 +20°C° 1.2 mm 0 mps 611 mmHg 88%
16:00 +19°C° 1.2 mm 0 mps 610 mmHg 90%
17:00 +18°C° 1.3 mm 0 mps 610 mmHg 92%
18:00 +17°C° 1.3 mm 0 mps 610 mmHg 94%
19:00 +16°C° 1.3 mm 0 mps 610 mmHg 97%
20:00 +16°C° 0.6 mm 0 mps 611 mmHg 97%
21:00 +16°C° 0.6 mm 0 mps 611 mmHg 97%
22:00 +15°C° 0.6 mm 0 mps 611 mmHg 97%
23:00 +15°C° 0.3 mm 0 mps 611 mmHg 97%

14 August, Friday

Time Temperature Precipitation Wind Pressure Humidity
00:00 +15°C° 0.3 mm 0 mps 611 mmHg 97%
01:00 +15°C° 0.3 mm 0 mps 611 mmHg 97%
02:00 +15°C° 2.5 mm 0 mps 611 mmHg 98%
03:00 +15°C° 2.5 mm 0 mps 611 mmHg 98%
04:00 +15°C° 2.5 mm 0 mps 610 mmHg 98%
05:00 +15°C° 2.7 mm 0 mps 611 mmHg 98%
06:00 +15°C° 2.7 mm 0 mps 611 mmHg 98%
07:00 +15°C° 2.7 mm 0 mps 611 mmHg 98%
08:00 +16°C° 2.4 mm 0 mps 612 mmHg 97%
09:00 +16°C° 2.4 mm 0 mps 612 mmHg 95%
10:00 +17°C° 2.4 mm 0 mps 612 mmHg 94%
11:00 +18°C° 0.2 mm 0 mps 612 mmHg 87%
12:00 +19°C° 0.2 mm 0 mps 612 mmHg 81%
13:00 +21°C° 0.2 mm 0 mps 612 mmHg 74%
14:00 +21°C° 0.9 mm 0 mps 612 mmHg 76%
15:00 +20°C° 0.9 mm 0 mps 612 mmHg 78%
16:00 +20°C° 0.9 mm 0 mps 611 mmHg 80%
17:00 +19°C° 1 mm 0 mps 611 mmHg 85%
18:00 +18°C° 1 mm 0 mps 611 mmHg 89%
19:00 +16°C° 1 mm 0 mps 611 mmHg 94%
20:00 +16°C° 0.8 mm 0 mps 611 mmHg 95%
21:00 +16°C° 0.8 mm 0 mps 612 mmHg 96%
22:00 +16°C° 0.8 mm 0 mps 612 mmHg 96%
23:00 +15°C° 1.2 mm 0 mps 612 mmHg 97%
Show more